Location: Newark
(39.5667°N, 8.9833°E)
Time: 20:24:08
(UTC+00:00)

Transit 2A - Pass Details

Date: 31 October 2019
Orbit: 601 x 957 km, 66.7° (Epoch: 17 November)

Event Time Altitude Azimuth Distance (km) Brightness Sun altitude
Rises 01:07:37 0° 331° (NNW) 2,867 - -53.3°
Reaches altitude 10° 01:09:53 10° 332° (NNW) 1,951 - -52.9°
Maximum altitude 01:14:13 85° 59° (ENE) 612 - -52.3°
Drops below altitude 10° 01:18:39 10° 150° (SSE) 1,983 - -51.5°
Sets 01:20:57 0° 151° (SSE) 2,918 - -51.2°
